Location: Sternwarte Stuttgart
(48.7670°N, 9.1830°E)
Time: 14:08:55
(UTC+01:00)

CZ-2C R/B - Pass Details

Date: 24 January 2019
Orbit: 669 x 784 km, 98.1° (Epoch: 22 February)

Event Time Altitude Azimuth Distance (km) Brightness Sun altitude
Rises 04:36:35 0° 21° (NNE) 3,102 6.0 -33.8°
Reaches altitude 10° 04:39:01 10° 31° (NNE) 2,197 5.3 -33.4°
Maximum altitude 04:43:24 34° 96° (E) 1,190 3.9 -32.7°
Enters shadow 04:46:07 20° 148° (SSE) 1,662 4.4 -32.2°
